Houston Hull, TX

7:32 AM CST on December 16, 2019 (GMT -0600)
Sugar Land Municipal-Hull

Weather History for KSGR - August, 2019

Change the Weather History Date:

Friday, August 23, 2019

  Actual Average Record
Temperature  
Mean Temperature 83 °F -  
Max Temperature 95 °F 93 °F 102 °F (2011)
Min Temperature 75 °F 73 °F 62 °F (1949)
Cooling Degree Days 18    
Growing Degree Days 33 (Base 50)    
Moisture  
Dew Point 77 °F    
Average Humidity 85    
Maximum Humidity 100    
Minimum Humidity 59    
Precipitation  
Precipitation 0.12 in - - ()
Sea Level Pressure  
Sea Level Pressure 29.90 in    
Wind  
Wind Speed 5 mph ()    
Max Wind Speed 20 mph    
Max Gust Speed 26 mph    
Visibility 9.4 miles    
Events Rain , Thunderstorm    
Averages and records for this station are not official NWS values.
T = Trace of Precipitation, MM = Missing Value Source: Averaged Metar Reports

Daily Weather History Graph

Daily Weather History Graph

Search for Another Location

Airport or City:

Astronomy

Aug. 23, 2019 Rise Set
Actual Time 6:54 AM CDT 7:55 PM CDT
Civil Twilight 6:30 AM CDT 8:19 PM CDT
Nautical Twilight 6:01 AM CDT 8:48 PM CDT
Astronomical Twilight 5:31 AM CDT 9:18 PM CDT
Moon 12:17 AM CDT (8/23) 1:59 PM CDT (8/23)
Length of Visible Light 13h 49m
Length of Day
13h 00m
Waning Gibbous, 49% of the Moon is Illuminated
Aug 23
Waning Gibbous
Aug 30
New
Sep 5
First Quarter
Sep 13
Full
Sep 21
Last Quarter

Hourly Weather History & Observations

Time (CDT) Temp. Heat Index Dew Point Humidity Pressure Visibility Wind Dir Wind Speed Gust Speed Precip Events Conditions
12:53 AM 81.0 °F 87.9 °F 77.0 °F 88% 29.91 in 10.0 mi SE 6.9 mph - N/A   Clear
1:53 AM 79.0 °F - 77.0 °F 94% 29.90 in 10.0 mi SSE 4.6 mph - N/A   Clear
2:53 AM 79.0 °F - 77.0 °F 94% 29.90 in 10.0 mi Calm Calm - N/A   Clear
3:53 AM 80.1 °F 85.8 °F 77.0 °F 90% 29.89 in 10.0 mi Calm Calm - N/A   Clear
4:53 AM 77.0 °F - 75.9 °F 96% 29.90 in 10.0 mi Calm Calm - N/A   Scattered Clouds
5:53 AM 75.9 °F - 75.9 °F 100% 29.91 in 10.0 mi Calm Calm - 0.00 in   Clear
6:53 AM 75.9 °F - 75.9 °F 100% 29.91 in 10.0 mi Calm Calm - N/A   Clear
7:53 AM 81.0 °F 88.6 °F 78.1 °F 91% 29.93 in 10.0 mi South 3.5 mph - N/A   Clear
8:53 AM 84.9 °F 97.5 °F 79.0 °F 82% 29.93 in 10.0 mi Variable 4.6 mph - N/A   Clear
9:53 AM 86.0 °F 99.3 °F 79.0 °F 79% 29.92 in 10.0 mi Calm Calm - N/A   Scattered Clouds
10:19 AM 87.1 °F 99.8 °F 78.1 °F 74% 29.91 in 10.0 mi Calm Calm - N/A   Mostly Cloudy
10:49 AM 84.2 °F 96.1 °F 78.8 °F 84% 29.92 in 2.5 mi North 9.2 mph - 0.09 in Rain Heavy Rain
10:50 AM 82.9 °F 93.8 °F 79.0 °F 88% 29.92 in 2.0 mi North 8.1 mph - 0.10 in Rain Heavy Rain
10:58 AM 84.0 °F 96.0 °F 79.0 °F 85% 29.92 in 5.0 mi WNW 4.6 mph - 0.02 in Rain Light Rain
11:53 AM 89.1 °F 103.2 °F 78.1 °F 70% 29.91 in 10.0 mi Calm Calm - 0.02 in   Clear
12:53 PM 91.9 °F 105.9 °F 77.0 °F 62% 29.90 in 10.0 mi East 3.5 mph - N/A   Partly Cloudy
1:20 PM 91.0 °F 101.6 °F 75.0 °F 59% 29.89 in 10.0 mi Calm Calm - N/A Thunderstorm Thunderstorm
1:41 PM 91.9 °F 107.3 °F 78.1 °F 64% 29.89 in 10.0 mi East 19.6 mph 26.5 mph N/A Thunderstorm Scattered Clouds
1:53 PM 88.0 °F 98.5 °F 75.9 °F 67% 29.89 in 10.0 mi East 16.1 mph 26.5 mph N/A Thunderstorm Partly Cloudy
2:15 PM 84.0 °F 93.7 °F 77.0 °F 79% 29.90 in 10.0 mi ESE 15.0 mph 20.7 mph 0.00 in Rain Light Rain
2:53 PM 82.0 °F 89.4 °F 75.9 °F 82% 29.89 in 10.0 mi ESE 12.7 mph 19.6 mph 0.00 in   Clear
3:53 PM 82.0 °F 89.4 °F 75.9 °F 82% 29.91 in 10.0 mi ESE 12.7 mph - N/A   Partly Cloudy
4:53 PM 82.0 °F 89.4 °F 75.9 °F 82% 29.88 in 10.0 mi ESE 9.2 mph - N/A   Partly Cloudy
5:53 PM 81.0 °F 88.6 °F 78.1 °F 91% 29.88 in 10.0 mi SE 10.4 mph - N/A   Scattered Clouds
6:53 PM 81.0 °F 87.9 °F 77.0 °F 88% 29.86 in 10.0 mi ESE 10.4 mph - N/A   Scattered Clouds
7:50 PM 80.6 °F 88.1 °F 78.8 °F 94% 29.87 in 10.0 mi ESE 5.8 mph - N/A   Mostly Cloudy
7:53 PM 81.0 °F 87.9 °F 77.0 °F 88% 29.88 in 10.0 mi SE 8.1 mph - N/A   Mostly Cloudy
8:24 PM 81.0 °F 87.9 °F 77.0 °F 88% 29.88 in 10.0 mi ESE 8.1 mph - N/A   Scattered Clouds
8:36 PM 81.0 °F 87.9 °F 77.0 °F 88% 29.87 in 10.0 mi ESE 6.9 mph - N/A   Mostly Cloudy
8:44 PM 80.1 °F 85.8 °F 77.0 °F 90% 29.88 in 10.0 mi ESE 6.9 mph - N/A   Scattered Clouds
8:53 PM 80.1 °F 85.8 °F 77.0 °F 90% 29.89 in 10.0 mi ESE 5.8 mph - N/A   Partly Cloudy
9:53 PM 80.1 °F 85.8 °F 77.0 °F 90% 29.90 in 10.0 mi ESE 5.8 mph - N/A   Clear
10:53 PM 80.1 °F 85.8 °F 77.0 °F 90% 29.89 in 10.0 mi SE 6.9 mph - N/A   Clear
11:53 PM 79.0 °F - 77.0 °F 94% 29.90 in 10.0 mi ESE 5.8 mph - N/A   Clear